Time,TemperatureF,DewpointF,PressureIn,WindDirection,WindDirectionDegrees,WindSpeedMPH,WindSpeedGustMPH,Humidity,HourlyPrecipIn,Conditions,Clouds,dailyrainin,SolarRadiationWatts/m^2,SoftwareType,DateUTC
2013-03-19 18:50:00,40.0,34.3,30.33,WSW,252,7.0,9.0,80,0.00,,,0.00,40,Wunderground v.1.15,2013-03-19 23:50:00,
2013-03-19 19:00:00,39.8,34.4,30.33,West,279,6.0,6.0,81,0.00,,,0.00,25,Wunderground v.1.15,2013-03-20 00:00:00,
2013-03-19 19:05:00,39.7,34.7,30.33,WSW,252,5.0,6.0,82,0.00,,,0.00,16,Wunderground v.1.15,2013-03-20 00:05:00,
2013-03-19 19:15:00,39.7,34.7,30.33,West,267,5.0,6.0,82,0.00,,,0.00,9,Wunderground v.1.15,2013-03-20 00:15:00,
2013-03-19 19:25:00,39.5,34.5,30.33,West,267,4.0,9.0,82,0.00,,,0.00,5,Wunderground v.1.15,2013-03-20 00:25:00,
2013-03-19 19:35:00,39.1,34.4,30.33,WSW,250,4.0,4.0,83,0.00,,,0.00,0,Wunderground v.1.15,2013-03-20 00:35:00,
2013-03-19 19:40:00,38.9,34.2,30.33,WSW,253,3.0,3.0,83,0.00,,,0.00,0,Wunderground v.1.15,2013-03-20 00:40:00,
2013-03-19 19:50:00,38.4,34.0,30.33,WSW,253,2.0,2.0,84,0.00,,,0.00,0,Wunderground v.1.15,2013-03-20 00:50:00,
2013-03-19 19:55:00,38.2,34.1,30.33,WSW,253,1.0,2.0,85,0.00,,,0.00,0,Wunderground v.1.15,2013-03-20 00:55:00,
2013-03-19 20:00:00,38.0,33.9,30.33,WSW,253,2.0,2.0,85,0.00,,,0.00,0,Wunderground v.1.15,2013-03-20 01:00:00,
2013-03-19 20:10:00,37.5,33.7,30.33,WSW,253,2.0,2.0,86,0.00,,,0.00,0,Wunderground v.1.15,2013-03-20 01:10:00,
2013-03-19 20:20:00,37.2,33.7,30.34,WSW,253,1.0,1.0,87,0.00,,,0.00,0,Wunderground v.1.15,2013-03-20 01:20:00,
2013-03-19 20:25:00,37.0,33.5,30.34,WSW,253,1.0,1.0,87,0.00,,,0.00,0,Wunderground v.1.15,2013-03-20 01:25:00,
2013-03-19 20:35:00,36.5,33.0,30.34,WSW,253,1.0,1.0,87,0.00,,,0.00,0,Wunderground v.1.15,2013-03-20 01:35:00,
2013-03-19 20:45:00,36.0,32.8,30.34,WSW,253,2.0,2.0,88,0.00,,,0.00,0,Wunderground v.1.15,2013-03-20 01:45:00,
2013-03-19 20:55:00,35.7,32.8,30.33,SW,230,2.0,3.0,89,0.00,,,0.00,0,Wunderground v.1.15,2013-03-20 01:55:00,
2013-03-19 21:00:00,35.6,32.7,30.34,SW,230,2.0,2.0,89,0.00,,,0.00,0,Wunderground v.1.15,2013-03-20 02:00:00,
2013-03-19 21:10:00,35.5,32.6,30.34,SW,230,1.0,2.0,89,0.00,,,0.00,0,Wunderground v.1.15,2013-03-20 02:10:00,
2013-03-19 21:20:00,35.2,32.3,30.34,SW,231,2.0,2.0,89,0.00,,,0.00,0,Wunderground v.1.15,2013-03-20 02:20:00,
2013-03-19 21:30:00,35.0,32.1,30.35,SW,231,2.0,2.0,89,0.00,,,0.00,0,Wunderground v.1.15,2013-03-20 02:30:00,
2013-03-19 21:35:00,35.0,32.4,30.35,SW,231,1.0,2.0,90,0.00,,,0.00,0,Wunderground v.1.15,2013-03-20 02:35:00,
2013-03-19 21:44:00,35.1,32.7,30.35,West,261,2.0,2.0,91,0.00,,,0.00,0,Wunderground v.1.15,2013-03-20 02:44:00,
2013-03-19 21:50:00,35.2,32.8,30.35,WSW,254,2.0,3.0,91,0.00,,,0.00,0,Wunderground v.1.15,2013-03-20 02:50:00,
2013-03-19 21:59:00,35.7,33.6,30.36,West,276,3.0,3.0,92,0.00,,,0.00,0,Wunderground v.1.15,2013-03-20 02:59:00,
2013-03-19 22:09:00,36.1,34.0,30.35,West,265,3.0,3.0,92,0.00,,,0.00,0,Wunderground v.1.15,2013-03-20 03:09:00,
2013-03-19 22:14:00,36.2,34.1,30.34,WSW,252,3.0,3.0,92,0.00,,,0.00,0,Wunderground v.1.15,2013-03-20 03:14:00,
2013-03-19 22:24:00,36.4,34.3,30.35,WSW,256,4.0,7.0,92,0.00,,,0.00,0,Wunderground v.1.15,2013-03-20 03:24:00,
2013-03-19 22:34:00,36.8,34.7,30.35,West,261,6.0,6.0,92,0.00,,,0.00,0,Wunderground v.1.15,2013-03-20 03:34:00,
2013-03-19 22:39:00,36.9,34.8,30.36,West,272,5.0,5.0,92,0.00,,,0.00,0,Wunderground v.1.15,2013-03-20 03:39:00,
2013-03-19 22:49:00,37.0,34.6,30.36,West,271,4.0,5.0,91,0.00,,,0.00,0,Wunderground v.1.15,2013-03-20 03:49:00,
2013-03-19 22:59:00,36.9,34.5,30.35,West,271,4.0,4.0,91,0.00,,,0.00,0,Wunderground v.1.15,2013-03-20 03:59:00,
2013-03-19 23:04:00,36.9,34.5,30.36,SW,236,3.0,4.0,91,0.00,,,0.00,0,Wunderground v.1.15,2013-03-20 04:04:00,
2013-03-19 23:09:00,36.8,34.4,30.36,WSW,251,4.0,5.0,91,0.00,,,0.00,0,Wunderground v.1.15,2013-03-20 04:09:00,
2013-03-19 23:14:00,36.6,33.9,30.35,West,279,5.0,5.0,90,0.00,,,0.00,0,Wunderground v.1.15,2013-03-20 04:14:00,
2013-03-19 23:19:00,36.5,34.1,30.35,WSW,258,4.0,5.0,91,0.00,,,0.00,0,Wunderground v.1.15,2013-03-20 04:19:00,
2013-03-19 23:29:00,36.2,33.8,30.35,SSW,213,3.0,5.0,91,0.00,,,0.00,0,Wunderground v.1.15,2013-03-20 04:29:00,
2013-03-19 23:39:00,35.9,33.5,30.35,West,275,3.0,3.0,91,0.00,,,0.00,0,Wunderground v.1.15,2013-03-20 04:39:00,
2013-03-19 23:49:00,35.6,33.2,30.35,SW,229,3.0,3.0,91,0.00,,,0.00,0,Wunderground v.1.15,2013-03-20 04:49:00,
2013-03-19 23:59:00,35.3,32.9,30.35,SW,227,2.0,3.0,91,0.00,,,0.00,0,Wunderground v.1.15,2013-03-20 04:59:00,